Weather History for KPBI - August, 2014

Change the Weather History Date:

Saturday, August 2, 2014

  Actual Average Record
Temperature  
Mean Temperature 85 °F 83 °F  
Max Temperature 91 °F 91 °F 97 °F (2011)
Min Temperature 78 °F 76 °F 67 °F (1919)
Degree Days  
Heating Degree Days 0 0  
Month to date heating degree days 0 0  
Since 1 June heating degree days 0 0  
Since 1 July heating degree days 0 0  
Cooling Degree Days 20 18  
Month to date cooling degree days 39 36  
Year to date cooling degree days 2443 2184  
Since 1 June cooling degree days 1091 1075  
Growing Degree Days 34 (Base 50)    
Moisture  
Dew Point 75 °F    
Average Humidity 77    
Maximum Humidity 97    
Minimum Humidity 56    
Precipitation  
Precipitation 0.01 in 0.22 in 3.36 in (2001)
Month to date precipitation 0.01 0.44  
Year to date precipitation 33.44 33.21  
Snow  
Snow 0.00 in - - ()
Month to date snowfall 0.0  
Since 1 June snowfall 0.0  
Since 1 July snowfall 0.0  
Snow Depth 0.00 in    
Sea Level Pressure  
Sea Level Pressure 29.93 in    
Wind  
Wind Speed 7 mph (ENE)    
Max Wind Speed 15 mph    
Max Gust Speed 18 mph    
Visibility 10 miles    
Events      
T = Trace of Precipitation, MM = Missing Value Source: NWS Daily Summary

Daily Weather History Graph

Daily Weather History Graph

Search for Another Location

Airport or City:

Trip Planner

Search our weather history database for the weather conditions in past years. The results will help you decide how hot, cold, wet, or windy it might be!

Date:

Astronomy

Aug. 02, 2014 Rise Set
Actual Time 6:45 AM EDT 8:07 PM EDT
Civil Twilight 6:20 AM EDT 8:32 PM EDT
Nautical Twilight 5:51 AM EDT 9:01 PM EDT
Astronomical Twilight 5:20 AM EDT 9:32 PM EDT
Moon 12:26 PM EDT (8/2) No Moon Set
Length of Visible Light 14h 11m
Length of Day
13h 21m
Waxing Crescent, 36% of the Moon is Illuminated
Aug 2
Waxing Crescent
Aug 3
First Quarter
Aug 10
Full
Aug 17
Last Quarter
Aug 25
New

Hourly Weather History & Observations

Time (EDT) Temp. Heat Index Dew Point Humidity Pressure Visibility Wind Dir Wind Speed Gust Speed Precip Events Conditions
12:53 AM 82.9 °F 89.4 °F 73.9 °F 74% 29.97 in 10.0 mi SE 3.5 mph - N/A   Partly Cloudy
1:53 AM 82.0 °F 87.9 °F 73.9 °F 76% 29.95 in 10.0 mi ESE 3.5 mph - N/A   Partly Cloudy
2:53 AM 82.0 °F 88.6 °F 75.0 °F 79% 29.93 in 10.0 mi East 4.6 mph - N/A   Scattered Clouds
3:53 AM 81.0 °F 86.7 °F 75.0 °F 82% 29.91 in 10.0 mi Calm Calm - N/A   Scattered Clouds
4:53 AM 80.1 °F 85.1 °F 75.0 °F 85% 29.91 in 10.0 mi Calm Calm - N/A   Partly Cloudy
5:53 AM 78.1 °F - 75.9 °F 93% 29.91 in 10.0 mi WNW 5.8 mph - N/A   Scattered Clouds
6:53 AM 79.0 °F - 77.0 °F 94% 29.93 in 10.0 mi NNW 5.8 mph - N/A   Mostly Cloudy
7:53 AM 81.0 °F 87.9 °F 77.0 °F 88% 29.94 in 10.0 mi NNW 3.5 mph - N/A   Mostly Cloudy
8:53 AM 82.9 °F 91.8 °F 77.0 °F 82% 29.95 in 10.0 mi North 8.1 mph - N/A   Mostly Cloudy
9:53 AM 84.9 °F 93.3 °F 75.0 °F 72% 29.96 in 10.0 mi NE 5.8 mph - N/A   Mostly Cloudy
10:53 AM 89.1 °F 98.0 °F 73.9 °F 61% 29.96 in 10.0 mi NE 6.9 mph - N/A   Mostly Cloudy
11:53 AM 90.0 °F 99.0 °F 73.9 °F 59% 29.96 in 10.0 mi NNE 10.4 mph - N/A   Scattered Clouds
12:53 PM 91.0 °F 100.4 °F 73.9 °F 57% 29.95 in 10.0 mi NNE 11.5 mph - N/A   Scattered Clouds
1:53 PM 90.0 °F 100.2 °F 75.0 °F 61% 29.94 in 10.0 mi ENE 10.4 mph - N/A   Scattered Clouds
2:53 PM 89.1 °F 99.1 °F 75.0 °F 63% 29.92 in 10.0 mi NE 9.2 mph - N/A   Scattered Clouds
3:53 PM 88.0 °F 97.5 °F 75.0 °F 65% 29.90 in 10.0 mi NE 13.8 mph - N/A   Mostly Cloudy
4:53 PM 87.1 °F 97.3 °F 75.9 °F 69% 29.90 in 10.0 mi NE 10.4 mph - N/A   Mostly Cloudy
5:53 PM 87.1 °F 96.3 °F 75.0 °F 67% 29.90 in 10.0 mi ENE 12.7 mph - N/A   Mostly Cloudy
6:53 PM 87.1 °F 95.4 °F 73.9 °F 65% 29.89 in 10.0 mi ENE 13.8 mph - N/A   Mostly Cloudy
7:53 PM 86.0 °F 95.1 °F 75.0 °F 70% 29.91 in 10.0 mi ENE 11.5 mph - N/A   Mostly Cloudy
8:53 PM 84.9 °F 92.1 °F 73.9 °F 69% 29.91 in 10.0 mi East 10.4 mph - N/A   Mostly Cloudy
9:53 PM 84.9 °F 93.3 °F 75.0 °F 72% 29.92 in 10.0 mi East 6.9 mph - N/A   Mostly Cloudy
10:44 PM 84.0 °F 93.7 °F 77.0 °F 79% 29.93 in 10.0 mi ESE 11.5 mph - 0.01 in   Mostly Cloudy
10:53 PM 82.9 °F 90.8 °F 75.9 °F 79% 29.94 in 10.0 mi ESE 10.4 mph - 0.01 in   Mostly Cloudy
11:40 PM 82.9 °F 90.8 °F 75.9 °F 79% 29.93 in 10.0 mi SE 4.6 mph - N/A   Mostly Cloudy
11:53 PM 82.9 °F 90.8 °F 75.9 °F 79% 29.92 in 10.0 mi ESE 3.5 mph - N/A   Mostly Cloudy